This is the latest recevied weather packets stored in our database for station/object WY7EM. If no packets are shown the sender has not sent any weather packets the latest 10 day(s).
| Time | Temp. | Humidity | Pressure | Rain* | Wind** | Luminosity | Snow |
|---|---|---|---|---|---|---|---|
| 1778147043 | 12.78° C | 32% | 1019.7 hPa | 0 mm | - | 0 W/m² | - |
| 1778146740 | 12.22° C | 33% | 1019.8 hPa | 0 mm | - | 0 W/m² | - |
| 1778146438 | 12.22° C | 33% | 1019.7 hPa | 0 mm | - | 0 W/m² | - |
| 1778146136 | 12.78° C | 33% | 1019.6 hPa | 0 mm | - | 0 W/m² | - |
| 1778145832 | 12.78° C | 32% | 1019.7 hPa | 0 mm | - | 0 W/m² | - |
| 1778145528 | 13.33° C | 32% | 1019.5 hPa | 0 mm | - | 0 W/m² | - |
| 1778145225 | 13.33° C | 31% | 1019.5 hPa | 0 mm | - | 0 W/m² | - |
| 1778144921 | 12.78° C | 32% | 1019.6 hPa | 0 mm | - | 0 W/m² | - |
| 1778144617 | 12.78° C | 31% | 1019.6 hPa | 0 mm | - | 0 W/m² | - |
| 1778144314 | 13.33° C | 31% | 1019.6 hPa | 0 mm | - | 0 W/m² | - |
| 1778144011 | 13.33° C | 30% | 1019.6 hPa | 0 mm | - | 0 W/m² | - |
| 1778143708 | 13.89° C | 30% | 1019.5 hPa | 0 mm | - | 0 W/m² | - |
| 1778143405 | 14.44° C | 29% | 1019.7 hPa | 0 mm | - | 0 W/m² | - |
| 1778143102 | 14.44° C | 29% | 1019.6 hPa | 0 mm | - | 0 W/m² | - |
| 1778142799 | 14.44° C | 29% | 1019.4 hPa | 0 mm | - | 0 W/m² | - |
| 1778142495 | 14.44° C | 29% | 1019.5 hPa | 0 mm | - | 0 W/m² | - |
| 1778142190 | 13.89° C | 31% | 1019.5 hPa | 0 mm | - | 0 W/m² | - |
| 1778141888 | 13.89° C | 31% | 1019.4 hPa | 0 mm | - | 0 W/m² | - |
| 1778141583 | 15° C | 29% | 1019.7 hPa | 0 mm | - | 0 W/m² | - |
| 1778141280 | 15° C | 29% | 1019.6 hPa | 0 mm | - | 0 W/m² | - |
| 1778140977 | 15° C | 29% | 1019.4 hPa | 0 mm | - | 0 W/m² | - |
| 1778140672 | 15° C | 29% | 1019.3 hPa | 0 mm | - | 0 W/m² | - |
| 1778140368 | 15° C | 29% | 1019.5 hPa | 0 mm | - | 0 W/m² | - |
| 1778140065 | 15° C | 29% | 1019.5 hPa | 0 mm | - | 0 W/m² | - |
| 1778139763 | 15° C | 29% | 1019.4 hPa | 0 mm | - | 0 W/m² | - |
* Rain latest hour (hover to see other rain measurements)
** Current wind speed in m/s (hover to see current wind gust speed)